User: anonymous   Login
Location: Pulvis Stellarum Observatory
(41.6962°N, 71.4263°W)
Time: 08:51:39
(UTC-05:00)
Language:

Cosmos 1758 - Orbit

View from above orbital plane
View from above orbital plane
View from above satellite
View from above satellite

Ground track
Ground track

The orbit data is extracted from the following two-line orbital elements,

1 16791U 86046A   14330.13070137  .00003175  00000-0  24054-3 0  1908
2 16791 082.4723 220.9330 0018461 029.1358 331.0892 15.01839062545329
Epoch (UTC): 26 November 2014 03:08:12
Eccentricity: 0.0018461
inclination: 82.4723°
perigee height: 548 km
apogee height: 574 km
right ascension of ascending node: 220.9330°
argument of perigee: 29.1358°
revolutions per day: 15.01839062
mean anomaly at epoch: 331.0892°
orbit number at epoch: 54532

The dashed part of the orbit path shows where the satellite is in the earth's shadow,  

DLR